RH
62 58 55 51 49 46 43 39 37 35 32 28 27 27 25 30 41 50 54 52 48 43 41 39 36 32 30 27 24 24 27 30 32 33 34 37 38 40 41 44 48 49 48 46 43 40 38 37 37 37 37 38 40 42 42 40 40 41 43 47 50 52 53 56 60 60 66 77 81 82 77 67 62 66 66 64 66 68 62 49 42 41 43 43 31 23 29
58 55 52 50 48 44 40 37 35 31 28 28 27 26 32 45 54 55 51 47 44 42 39 36 33 30 27 24 25 28 30 33 35 37 39 40 42 46 50 52 52 48 45 43 40 39 38 38 39 39 40 41 43 44 44 43 45 49 52 55 58 59 59 58 56 51 55 68 74 73 72 73 76 78 76 76 81 82 70 58 51 43 42 49 42 28 26
57 54 52 49 45 40 38 35 31 29 28 28 28 32 45 56 56 52 48 46 43 40 37 35 31 27 25 26 30 31 32 35 38 40 43 46 50 55 55 52 48 45 43 41 40 40 40 39 39 40 41 42 44 45 47 49 53 56 58 60 64 65 63 62 63 57 56 67 71 62 58 67 82 92 92 90 92 87 73 60 50 37 36 46 43 30 23
56 54 51 46 41 39 37 31 28 29 29 29 34 47 57 57 52 50 49 45 41 38 36 33 29 26 28 31 32 33 36 38 40 45 51 55 58 56 52 48 46 46 44 44 43 42 41 40 40 40 40 41 44 48 50 53 56 57 60 64 67 67 63 66 73 74 79 92 90 70 65 81 99 103 93 87 90 85 68 54 44 36 34 36 33 27 20
55 53 47 42 40 37 32 29 30 30 29 35 49 59 59 54 52 52 48 43 40 38 35 31 28 29 31 34 35 36 38 40 46 55 60 59 55 51 49 49 50 50 49 48 47 44 42 41 39 38 39 42 45 49 50 52 54 58 62 65 66 64 64 73 85 89 94 103 95 78 79 94 103 96 82 81 90 83 62 48 41 37 33 28 23 20 16
53 49 43 40 38 32 29 31 31 29 36 51 61 60 56 55 54 51 46 42 40 36 32 30 30 33 35 36 37 38 41 48 56 61 58 53 51 51 53 54 53 53 52 50 48 46 44 42 40 40 41 43 46 48 50 52 54 58 60 61 62 62 66 78 92 97 102 108 102 86 83 92 96 89 78 81 88 79 59 47 40 34 31 26 19 16 14
49 44 41 38 33 30 31 31 29 35 51 63 62 58 57 57 54 48 43 41 39 34 31 32 35 37 37 37 38 42 49 56 58 55 51 52 55 56 57 56 54 52 51 49 48 47 46 44 43 43 43 45 47 48 49 50 51 53 54 56 59 62 71 83 92 100 105 108 100 81 76 88 94 84 76 79 84 82 68 49 35 29 26 23 19 15 14
45 41 38 34 31 32 32 30 36 51 63 63 60 60 61 57 51 45 42 41 37 32 32 35 38 37 37 39 44 50 54 54 51 51 53 57 60 59 57 55 52 49 49 49 48 48 47 46 46 47 48 49 49 50 50 50 52 53 55 62 67 70 79 89 92 98 104 100 91 80 78 88 90 79 75 74 73 79 75 49 29 24 21 17 17 14 11
42 39 35 32 33 33 30 37 53 64 63 61 64 64 60 53 47 44 42 39 34 32 35 38 37 37 40 45 50 52 51 48 49 54 58 59 59 57 53 50 48 47 48 49 49 50 50 49 50 49 48 48 48 49 52 54 57 63 69 79 84 83 89 95 89 90 100 99 91 84 79 84 85 73 65 61 57 70 77 52 27 25 20 13 13 12 8
40 36 33 35 34 30 37 56 66 64 62 66 67 62 56 50 46 43 41 37 33 35 38 37 37 41 47 50 50 48 47 49 52 56 57 57 56 54 50 47 47 47 48 47 48 49 49 48 48 48 47 48 49 50 55 61 67 74 82 90 92 87 90 95 87 87 101 101 88 80 78 81 75 56 49 53 48 53 69 55 26 20 22 15 11 11 8
37 34 36 35 30 36 57 70 66 64 69 71 67 60 54 49 46 43 38 35 35 38 37 37 42 49 51 49 46 46 49 52 54 55 55 55 55 53 49 47 48 48 47 47 47 48 48 47 47 49 49 52 55 55 59 67 75 81 86 90 91 88 92 101 96 90 98 94 76 69 71 69 61 47 45 53 44 37 56 61 34 17 19 18 13 12 10
35 37 37 31 33 54 71 70 66 73 78 73 66 59 52 48 46 41 36 36 38 37 37 41 49 51 48 45 46 48 51 52 52 53 54 53 53 54 53 51 51 48 46 47 48 50 52 51 52 54 55 57 62 64 66 72 79 84 87 88 90 89 93 104 99 86 89 88 70 59 61 63 66 59 48 47 42 33 45 58 44 23 18 16 12 11 9
37 38 31 30 49 70 71 68 76 84 81 73 65 56 50 48 44 38 36 37 37 36 39 46 50 48 45 46 48 48 49 49 51 53 52 51 54 58 59 57 54 50 48 50 55 58 59 59 59 61 62 64 67 69 71 75 80 84 86 88 92 91 91 101 98 82 81 87 74 62 67 74 78 68 47 39 38 29 28 40 38 24 16 13 10 9 9
38 32 30 46 67 72 68 75 87 87 80 70 58 51 50 47 40 36 36 36 37 38 43 47 47 45 46 46 46 46 48 50 51 51 50 53 58 63 63 62 59 55 54 57 62 64 64 64 65 66 67 69 71 72 74 76 79 86 89 91 98 98 94 99 101 87 83 88 76 64 69 74 73 69 54 39 34 30 29 34 33 23 16 12 10 8 8
32 29 44 67 73 68 74 88 92 85 74 61 50 48 48 42 37 36 36 36 39 42 44 45 45 45 45 45 45 46 49 50 49 49 52 58 62 65 66 65 62 59 61 65 68 69 68 68 69 69 70 73 75 76 78 80 83 90 94 94 100 104 97 98 104 97 92 93 79 60 60 62 58 61 59 45 37 36 37 36 32 25 18 12 9 8 7
28 42 65 73 68 72 88 95 90 79 65 54 50 48 43 37 35 35 36 39 42 43 44 44 45 45 45 44 45 47 48 48 48 51 57 61 63 65 67 66 63 64 68 71 71 71 71 71 71 72 73 76 79 80 83 87 89 94 99 97 98 103 99 96 103 100 96 101 92 72 67 66 55 51 53 50 46 40 35 32 28 23 17 11 8 7 6
41 64 73 68 70 86 97 92 81 68 58 54 52 47 39 35 35 37 41 43 43 43 44 45 45 46 44 44 47 48 49 50 52 55 59 62 63 66 67 65 65 68 71 72 72 72 73 73 72 74 76 79 83 84 85 89 90 92 98 98 96 103 103 100 105 104 96 102 104 90 79 76 65 53 49 51 52 46 37 29 20 14 12 10 7 6 6
65 74 69 70 84 96 94 82 70 62 58 57 51 42 37 35 37 42 44 44 43 44 44 44 45 45 45 46 48 50 52 54 57 59 61 64 66 66 66 65 65 69 72 73 72 71 73 75 76 77 80 83 86 87 87 90 90 88 92 94 95 102 102 97 103 107 97 96 106 100 86 79 75 70 64 56 49 42 35 26 18 12 10 9 7 6 6
75 70 69 81 94 93 82 71 64 62 61 55 45 38 36 37 42 45 45 43 43 43 42 42 45 46 47 49 51 54 57 60 61 61 63 68 69 66 66 67 67 69 73 75 74 73 75 80 81 82 84 86 87 88 87 89 91 88 89 91 93 99 100 92 94 101 95 93 101 97 83 77 76 76 74 60 43 34 32 28 22 15 10 9 8 7 5
73 71 79 89 91 83 72 66 64 63 59 49 40 36 38 42 45 45 44 43 41 40 41 44 47 48 49 52 55 59 63 63 63 64 67 70 69 67 70 71 68 69 74 77 78 77 77 81 83 82 85 86 87 88 88 89 93 93 92 95 95 100 103 95 89 90 87 90 100 98 86 81 76 68 65 58 46 39 37 32 25 18 12 9 8 7 6
74 78 85 87 83 74 68 66 64 61 53 42 37 38 41 45 46 44 43 41 38 40 44 46 49 50 51 55 59 62 65 64 62 65 70 72 72 72 74 74 71 71 75 78 80 78 76 78 82 83 85 87 89 92 92 92 95 96 95 98 98 101 106 102 97 96 90 85 95 98 89 82 75 62 56 57 54 46 41 35 26 18 13 10 8 7 6
77 82 85 82 76 71 69 67 62 55 46 38 38 42 44 44 44 42 40 39 40 44 47 47 49 52 54 58 62 63 65 63 62 66 71 74 77 78 78 79 76 75 77 79 80 80 78 78 81 83 87 88 89 93 96 95 98 99 99 100 99 102 108 107 105 109 104 94 95 99 92 83 75 65 59 59 55 47 41 37 29 20 14 11 8 7 7
78 85 85 77 74 74 69 64 56 48 41 38 41 44 44 44 43 39 37 40 44 46 47 49 52 55 57 61 63 63 63 63 65 70 74 76 80 81 82 81 79 77 78 79 81 82 81 80 81 85 90 92 91 94 98 97 99 101 101 102 104 104 105 104 102 105 105 103 104 107 99 83 70 63 61 61 58 54 49 44 35 24 16 11 8 7 7
82 87 82 76 78 76 66 58 50 41 39 42 44 45 44 43 40 38 39 44 46 46 49 52 55 58 61 65 66 64 65 68 71 75 77 79 80 81 81 81 79 79 80 80 83 84 82 82 83 87 92 96 94 95 98 99 101 102 101 101 104 103 103 105 106 107 107 106 107 108 105 92 73 60 59 62 65 65 60 51 39 26 16 12 8 7 7
88 87 82 81 81 73 61 52 43 38 41 45 45 45 44 41 38 39 43 45 46 48 53 56 59 60 63 67 69 68 69 74 76 78 82 83 79 77 79 80 80 81 82 82 85 87 85 85 88 88 92 97 98 98 100 101 102 104 104 105 105 103 103 105 107 107 106 107 106 105 108 108 94 75 65 66 67 64 58 49 39 27 16 12 9 7 6
93 89 86 86 79 66 54 45 39 40 44 46 46 45 42 39 40 42 44 45 48 53 57 61 62 62 64 68 71 73 76 78 79 82 84 82 77 74 77 80 81 83 85 84 86 88 89 91 91 90 93 100 102 100 100 100 101 103 104 105 104 102 103 105 105 104 103 103 100 92 88 90 86 72 62 58 56 52 47 41 34 24 15 11 9 7 7
95 90 88 85 73 57 46 40 40 44 46 47 46 43 39 40 42 43 43 46 52 57 60 61 62 63 67 72 75 80 84 81 80 83 83 78 74 73 76 79 81 83 85 85 87 90 94 94 93 92 93 97 100 101 100 101 102 103 104 104 104 104 104 104 104 102 99 96 91 78 64 59 59 53 47 44 43 41 37 33 27 21 15 11 8 7 6
92 88 88 80 62 47 41 40 43 46 47 47 43 38 40 43 43 42 45 50 55 58 60 63 65 68 74 77 77 81 85 82 79 80 79 73 71 72 74 77 79 80 83 85 87 91 95 97 95 93 93 97 102 105 105 102 101 103 106 108 107 105 103 103 104 102 98 94 87 73 56 49 50 47 40 36 35 33 31 29 25 20 15 11 8 7 6
89 89 85 69 50 42 40 41 45 48 47 43 39 39 44 45 43 44 49 51 54 58 62 68 74 75 78 80 78 78 82 80 76 75 74 69 68 69 72 74 75 77 81 84 86 90 95 98 99 97 96 100 103 103 102 102 103 105 108 108 105 103 103 104 105 103 101 99 92 75 56 47 49 48 40 34 33 32 30 28 23 18 13 10 9 7 6
91 88 74 55 44 41 41 43 48 47 41 39 40 43 46 45 45 48 51 52 55 60 66 74 81 80 79 81 77 75 78 77 72 70 69 66 66 67 69 71 73 75 80 84 86 90 94 98 100 98 96 97 100 101 102 104 104 104 104 105 104 104 103 102 103 101 100 99 95 81 62 48 46 47 41 36 35 33 29 24 20 15 12 10 8 7 6
90 77 59 46 42 42 44 47 46 40 37 41 44 45 46 48 50 53 56 58 60 63 69 79 85 84 83 80 73 70 73 72 67 66 64 63 64 65 67 70 72 74 79 84 86 89 93 97 99 100 99 100 102 104 105 105 105 105 106 108 107 104 102 103 104 103 98 91 86 78 65 51 44 43 39 34 32 29 24 20 17 13 10 8 8 7 6
80 62 48 42 42 45 47 46 40 37 40 44 45 46 48 51 53 55 59 62 62 63 69 81 88 87 82 75 68 65 66 65 63 62 62 61 62 63 66 69 71 74 79 84 87 90 94 96 99 102 105 105 104 104 104 104 105 105 107 108 108 105 104 104 105 105 100 89 76 64 54 45 40 38 34 30 28 25 20 16 14 11 9 8 7 7 6
65 49 42 42 45 48 46 41 37 39 43 45 46 50 53 55 57 58 60 63 65 67 71 80 88 86 77 69 65 64 63 63 62 59 58 59 59 62 65 68 70 74 79 83 88 92 94 94 98 102 104 105 106 107 106 104 103 104 106 108 108 106 105 104 104 105 103 92 74 57 44 37 35 35 34 31 27 24 19 15 12 10 8 7 7 6 6
50 43 42 45 49 47 41 37 38 42 46 48 50 53 57 60 61 61 63 67 70 73 76 78 81 81 73 65 63 63 63 64 62 57 56 57 58 61 65 66 68 73 78 82 88 93 94 94 96 100 103 104 106 108 107 107 107 106 106 106 107 106 105 104 104 104 101 92 78 62 47 37 32 33 34 31 27 23 19 14 10 9 8 7 7 6 5
43 43 45 48 48 42 37 38 41 45 48 51 52 55 61 67 68 69 73 74 72 72 74 74 75 76 72 66 64 65 65 64 60 55 56 58 59 62 65 66 68 73 77 80 86 91 93 92 93 96 101 104 105 107 108 109 110 107 105 106 109 108 106 105 104 103 101 93 82 69 53 38 30 29 30 28 25 21 18 13 10 8 7 6 6 5 5
43 45 48 48 43 37 36 40 44 48 50 53 57 61 65 73 80 82 80 75 68 63 65 70 75 76 74 70 69 68 68 65 60 57 60 63 62 63 65 66 69 72 74 77 83 88 90 89 89 93 98 101 103 106 107 108 109 109 107 108 109 107 105 104 103 102 99 93 84 73 58 41 30 27 27 26 24 20 16 12 9 7 6 6 5 5 4
46 48 49 44 37 35 39 43 46 51 53 55 61 67 70 78 88 87 76 67 62 59 62 71 77 77 74 73 72 70 71 70 66 66 69 70 67 66 65 64 65 68 70 73 77 82 86 87 87 90 95 99 101 104 106 107 108 109 108 108 107 106 104 103 101 99 96 91 83 73 58 41 30 25 24 22 20 17 14 11 8 6 6 5 5 5 4
49 49 45 39 34 37 44 47 48 53 57 58 64 74 78 80 80 75 64 59 60 63 65 72 78 77 76 77 76 75 76 78 76 77 79 78 73 69 66 62 62 64 66 69 72 76 80 84 86 88 92 96 98 101 104 106 105 106 108 109 108 107 106 104 102 100 97 90 81 68 51 35 26 21 19 18 16 15 13 10 8 6 6 5 5 5 4
48 44 38 36 37 41 47 51 53 56 60 64 69 76 77 71 66 62 59 60 64 68 69 72 77 78 78 80 80 78 77 79 80 82 84 83 79 72 65 61 60 62 62 64 67 71 76 81 84 87 90 94 97 99 103 104 103 104 107 108 107 107 106 105 104 101 97 89 80 66 49 33 24 19 17 16 14 13 12 10 8 7 6 5 5 4 4
43 37 35 38 42 45 49 54 59 62 65 68 71 70 65 60 60 63 64 65 66 68 69 71 75 77 78 80 82 80 78 78 80 82 84 85 81 72 64 60 59 59 59 60 62 66 71 77 82 86 89 93 95 97 100 103 103 102 104 106 106 106 106 104 102 101 97 90 81 70 55 40 27 21 18 16 14 13 11 9 8 7 5 5 5 4 4
37 36 39 42 47 53 56 56 60 66 67 64 63 61 57 57 63 68 68 67 66 67 68 71 73 75 77 77 79 80 79 77 78 80 83 85 81 71 63 59 57 57 57 57 58 62 68 74 81 86 89 91 94 96 98 101 102 102 103 104 105 105 105 104 102 101 98 92 84 73 61 46 32 23 19 16 14 12 10 8 7 7 6 5 4 4 4
37 40 46 47 49 57 62 59 57 61 62 56 54 55 57 61 66 69 68 68 68 68 70 71 72 74 74 74 75 77 76 73 73 76 81 83 79 68 60 58 56 55 55 55 55 59 66 73 80 86 88 89 92 94 96 98 101 101 102 103 104 105 106 105 103 101 98 93 84 74 62 48 35 25 19 15 13 11 9 8 7 6 5 5 4 4 4
44 47 52 54 52 54 57 55 52 54 56 52 51 56 60 62 64 66 68 70 70 70 70 70 71 73 74 71 71 72 70 66 67 71 77 81 76 64 56 56 54 51 52 54 54 58 65 72 78 83 86 88 89 92 93 95 98 100 101 101 103 104 104 103 102 101 98 92 85 75 63 50 37 27 20 15 13 11 9 7 7 6 6 5 5 4 4
53 54 56 56 50 47 50 52 50 51 52 51 52 56 60 61 63 67 70 73 73 72 71 71 73 76 75 71 69 68 66 63 63 66 73 78 75 64 56 54 51 48 49 52 52 55 62 69 75 80 84 86 87 89 91 93 95 98 99 100 102 104 104 102 100 99 97 92 85 76 64 50 37 28 21 16 12 10 8 7 6 6 5 5 4 4 4
58 56 54 51 47 45 49 51 50 49 49 50 52 57 60 62 65 69 73 77 79 77 76 78 82 83 80 75 72 70 68 65 63 63 68 75 76 66 57 53 50 46 47 49 50 53 59 65 71 77 82 85 86 88 90 91 93 95 97 99 100 103 104 101 98 96 95 91 83 75 65 51 37 28 21 16 12 10 8 6 5 5 5 5 4 4 4
57 52 49 47 47 47 49 50 49 48 49 51 55 60 62 64 67 71 76 81 83 82 81 85 89 92 89 83 79 78 78 74 67 62 66 75 76 67 57 53 50 45 44 46 48 51 56 61 67 73 80 83 85 87 89 90 92 94 96 97 99 101 103 100 96 94 93 89 81 73 64 51 37 27 20 16 12 9 7 6 5 5 5 5 4 4 3
54 48 46 47 48 49 49 49 49 50 53 56 60 63 65 67 70 73 78 83 86 86 86 89 95 99 97 90 85 89 90 81 69 64 69 75 74 66 58 54 49 44 43 45 46 48 52 58 63 70 77 82 85 87 88 90 91 93 95 96 97 99 101 100 96 92 90 86 79 70 61 50 37 26 19 14 12 9 7 6 5 5 4 4 4 4 3
49 46 47 48 49 50 50 51 53 55 59 63 65 67 69 71 73 75 81 90 95 94 92 93 99 103 100 95 95 98 93 78 67 67 72 73 68 62 57 53 47 44 43 44 43 45 51 56 61 68 75 81 85 87 88 89 90 92 94 96 97 98 100 100 96 92 88 83 76 68 59 48 36 26 18 14 11 9 7 6 5 5 4 4 4 4 3
47 48 50 51 53 54 54 56 59 62 65 68 70 71 73 76 78 83 91 101 106 102 96 94 100 106 105 102 101 95 81 70 69 73 72 66 62 59 56 51 46 44 44 43 42 45 49 53 57 64 72 78 83 86 88 88 89 91 94 96 96 97 99 100 97 92 87 82 75 66 56 46 34 24 17 13 10 8 7 6 5 4 4 4 4 4 4
50 53 54 56 59 60 61 63 66 69 72 74 75 75 77 81 88 96 103 107 108 104 97 95 101 107 105 98 89 76 66 65 73 75 68 60 57 57 54 50 46 45 45 44 43 44 46 49 54 62 69 75 80 84 87 88 89 90 93 96 96 96 98 100 97 93 88 82 75 65 55 43 33 23 16 12 9 8 7 6 5 5 4 4 4 4 4
54 57 60 63 66 67 69 72 76 79 81 83 81 78 80 86 95 103 107 107 106 104 98 96 100 103 96 83 71 63 62 68 75 74 66 60 58 58 55 50 46 46 47 47 45 45 46 48 53 60 67 73 77 81 84 87 88 89 92 96 96 96 97 98 98 94 89 82 74 65 53 41 31 22 15 11 9 7 6 6 6 5 4 4 4 5 5
55 59 66 74 77 76 78 83 87 89 92 91 84 79 81 91 100 105 105 104 104 103 98 96 100 105 101 90 79 71 68 71 76 75 70 65 63 62 59 53 47 46 48 49 49 49 49 48 51 57 65 69 73 76 80 84 86 89 92 95 96 96 96 98 99 96 90 82 73 63 51 38 28 20 14 11 8 7 6 6 5 4 4 4 4 5 5
Wind_Speed
9 10 12 14 16 17 19 20 21 22 23 24 25 26 27 27 26 26 27 29 32 35 37 38 38 37 36 34 33 32 31 30 31 32 34 37 40 42 44 45 48 50 51 53 53 54 54 55 56 57 58 58 58 59 59 58 58 59 59 59 59 59 60 61 61 61 62 66 68 68 69 69 68 69 72 75 78 81 83 84 85 85 87 91 91 87 88
11 12 14 16 18 19 20 21 23 23 24 25 26 27 26 25 25 28 30 33 36 38 39 38 37 36 35 33 33 32 31 32 33 35 37 39 41 43 46 48 50 51 52 53 53 54 55 56 57 58 58 58 57 57 57 57 57 57 57 58 59 60 62 64 64 61 60 62 64 65 66 68 70 73 76 79 83 86 87 88 89 87 88 94 98 93 88
13 15 16 18 19 20 21 22 23 24 25 26 26 25 25 25 27 31 34 36 38 39 39 38 36 35 34 33 32 32 32 33 35 36 38 40 43 45 48 50 51 52 52 53 55 56 57 58 58 58 58 57 57 56 56 56 56 56 57 58 60 61 62 65 69 69 68 69 71 70 70 72 77 81 83 84 87 89 90 91 91 89 87 91 98 96 91
15 16 18 19 20 21 22 23 23 25 26 26 25 24 25 28 30 34 37 38 39 39 38 37 35 34 33 33 33 33 34 35 36 38 40 42 44 47 48 49 51 52 54 56 57 58 58 58 58 58 57 56 56 55 55 55 55 55 56 57 59 60 62 65 70 73 74 76 78 77 77 79 82 84 85 86 89 92 92 92 93 92 89 89 93 97 95
17 18 19 20 21 22 23 23 25 26 25 24 24 25 28 31 34 36 38 39 39 38 37 36 34 34 33 33 33 34 35 36 37 39 41 43 45 46 48 49 51 53 55 57 57 58 58 58 57 56 56 55 54 54 54 54 54 55 56 57 58 60 62 65 70 73 75 76 78 78 79 81 82 84 85 87 91 93 92 93 94 94 93 90 89 94 96
18 19 20 21 21 22 23 24 25 25 24 23 25 27 31 33 36 38 39 39 38 37 35 34 33 33 33 34 34 35 36 37 38 39 41 43 45 46 47 48 50 52 54 54 56 57 57 57 56 55 54 54 53 53 53 54 54 55 56 58 60 62 64 66 69 72 74 76 78 78 78 80 83 85 86 89 92 93 92 94 94 93 94 94 92 93 96
18 19 20 21 22 22 23 24 24 23 22 24 27 30 33 35 37 38 39 38 36 35 34 33 33 33 33 34 35 35 36 37 38 39 41 43 44 45 47 48 50 51 51 52 53 55 55 56 55 55 55 54 54 55 55 55 56 58 59 62 64 66 67 68 69 72 74 76 78 78 78 81 84 85 86 89 93 95 95 95 93 90 92 95 95 94 94
18 19 20 21 22 23 24 23 22 22 23 26 29 32 34 36 38 39 39 36 34 33 33 32 32 33 33 34 35 36 36 37 38 40 41 42 43 45 47 49 50 50 50 51 53 54 55 55 55 55 55 56 57 58 59 60 62 64 66 68 69 70 70 71 71 72 75 77 79 80 81 83 85 85 86 88 91 95 97 95 93 91 90 91 93 93 92
19 19 20 21 22 23 23 21 21 23 25 28 31 32 35 37 39 39 36 33 32 32 32 32 32 33 34 34 35 35 36 37 38 40 40 42 44 46 48 50 50 51 51 52 54 55 57 57 57 56 57 59 61 63 65 67 69 71 72 73 73 73 73 73 72 74 77 80 81 82 82 83 85 84 84 86 87 92 98 98 95 96 95 92 92 93 92
18 19 20 21 22 22 21 20 22 25 27 29 31 34 36 38 39 37 33 31 31 31 31 31 32 33 34 34 35 36 37 37 38 39 41 43 46 48 49 51 52 53 54 55 57 58 59 59 60 60 62 64 66 68 71 73 75 75 76 76 76 76 76 77 77 78 80 81 82 83 84 84 84 83 83 86 86 88 96 99 95 96 100 98 96 96 94
18 19 20 21 21 20 19 21 24 27 28 30 33 35 37 39 38 34 31 30 30 30 30 31 32 33 34 34 35 36 37 37 38 40 42 45 48 50 52 53 55 56 58 59 61 62 63 63 65 66 67 70 72 73 75 77 78 78 79 80 81 82 83 85 85 83 84 84 82 82 84 84 85 86 88 90 90 88 95 102 99 95 97 99 97 95 92
18 19 20 20 19 18 19 22 25 27 29 31 34 36 37 37 35 31 29 29 29 29 29 31 32 33 33 34 35 35 36 37 39 42 45 48 51 53 55 57 58 60 62 64 66 67 68 69 70 72 73 74 76 77 78 79 81 82 83 85 86 87 88 90 89 87 88 90 87 85 87 90 92 93 91 91 93 90 91 98 101 98 97 97 95 94 93
18 19 19 18 17 17 20 23 25 26 29 31 33 34 36 35 31 28 27 28 28 28 29 31 32 32 33 34 34 34 36 39 42 45 48 50 53 56 58 60 62 64 66 69 70 71 72 74 75 76 77 78 79 80 81 82 84 85 87 88 90 91 91 93 93 91 92 94 94 93 95 97 97 96 93 92 93 92 91 95 101 101 100 99 97 95 94
17 18 17 15 16 19 22 23 25 26 28 29 30 33 34 31 28 27 27 28 28 28 30 31 31 31 31 32 33 35 39 42 44 47 50 53 55 58 60 63 65 67 70 72 73 74 75 76 78 79 80 81 82 83 84 85 86 88 89 90 92 93 94 96 98 97 98 99 98 96 97 98 98 99 99 97 97 99 100 102 103 104 103 103 100 96 92
17 16 14 15 17 20 22 23 24 26 27 29 31 32 31 27 25 26 27 28 27 29 30 30 29 29 30 32 35 38 41 44 47 50 53 55 57 60 62 64 67 69 71 73 75 76 77 79 81 82 83 84 86 86 87 88 89 90 91 92 94 96 97 98 101 102 102 103 102 98 98 99 100 102 102 102 103 104 105 105 104 104 104 103 100 95 90
14 13 13 16 19 20 22 23 24 26 27 30 32 32 28 25 25 26 27 27 28 29 29 28 28 30 32 34 37 40 43 47 50 52 54 56 58 61 63 65 67 69 71 74 76 77 79 81 83 85 86 87 89 89 90 91 92 93 94 95 96 98 99 100 103 104 104 106 107 105 104 103 103 103 104 105 106 106 105 104 102 100 100 99 96 93 90
11 12 14 17 19 20 21 22 24 25 28 31 32 30 26 25 26 27 27 28 28 28 27 27 29 31 34 37 40 43 46 49 52 54 56 58 59 61 63 66 68 70 72 74 77 79 81 83 85 87 88 90 91 92 93 94 94 95 96 97 99 100 101 102 104 105 106 108 110 110 108 108 106 106 106 106 107 107 106 105 102 98 97 99 99 96 93
10 13 16 18 19 20 21 22 24 26 29 31 30 27 25 26 27 27 27 27 26 26 26 28 31 33 36 40 42 45 48 51 54 56 57 58 59 62 64 67 69 71 74 76 78 80 82 84 86 88 90 91 93 94 95 96 97 98 99 100 101 103 104 104 106 107 108 110 112 111 110 109 108 109 109 108 106 105 106 107 107 105 103 102 102 101 97
12 15 16 17 19 20 21 22 24 27 29 29 26 24 24 26 26 25 25 25 24 25 28 31 33 36 39 42 45 47 50 52 55 56 57 58 60 63 66 68 71 73 75 77 79 81 83 85 87 89 91 92 94 95 97 98 100 101 102 104 105 106 107 108 108 110 111 112 113 113 111 111 111 110 111 110 108 107 109 111 113 113 110 108 106 104 101
14 15 17 18 19 20 21 23 25 27 28 26 23 23 24 24 24 24 23 23 24 27 31 34 37 39 42 44 46 48 50 52 55 56 57 59 62 65 68 70 72 74 76 78 80 82 83 85 88 90 91 93 95 97 99 101 103 105 106 108 109 110 111 112 111 112 113 114 117 117 115 115 115 113 112 113 114 114 115 115 116 116 114 112 109 106 103
14 16 17 18 19 20 22 23 26 27 25 23 22 23 23 23 22 21 21 23 26 30 33 36 39 41 43 45 47 48 50 52 54 56 58 62 64 67 69 71 73 75 77 78 80 82 84 86 88 90 93 95 97 99 101 103 105 107 109 110 111 112 114 115 115 116 116 116 119 121 120 117 116 115 114 115 117 116 116 116 116 115 114 113 110 108 104
15 17 18 19 20 21 22 25 26 25 22 20 21 21 21 21 20 19 21 25 29 32 35 38 40 42 44 47 48 49 50 52 55 57 60 64 67 69 71 72 74 75 77 79 81 83 85 87 90 92 94 96 98 100 103 104 106 109 110 112 113 114 116 117 118 119 120 119 119 120 120 117 116 115 115 115 116 115 114 115 114 114 114 113 110 108 105
16 17 18 20 21 21 23 25 24 21 19 19 20 20 19 19 18 20 23 27 31 34 36 39 41 43 46 48 49 49 51 54 56 59 62 65 68 70 71 73 74 76 78 79 81 84 86 88 91 93 95 97 99 102 104 105 107 110 112 113 114 115 117 118 119 119 120 121 121 120 119 116 113 112 112 113 114 114 114 114 113 112 111 110 108 106 104
16 17 18 20 21 22 24 23 20 18 18 18 18 18 17 17 19 22 25 29 32 35 37 39 42 44 47 48 49 50 52 56 59 61 64 66 68 70 72 73 75 76 78 80 82 85 87 90 92 94 96 99 101 102 104 106 108 111 112 114 115 116 117 119 120 121 121 121 121 122 121 118 113 110 109 109 111 113 113 113 112 110 108 107 106 104 101
16 17 18 19 20 22 22 20 17 16 17 17 17 16 16 18 20 23 27 30 33 36 38 40 42 45 48 49 49 51 54 57 60 63 65 67 69 70 72 73 75 77 79 81 84 86 89 91 93 95 97 99 101 103 105 107 109 112 113 115 116 117 118 119 120 121 121 121 120 121 121 120 118 114 111 110 111 111 111 111 111 109 106 105 103 101 99
16 16 17 19 20 21 19 16 15 15 16 15 15 15 17 19 22 25 28 32 34 37 39 41 43 46 48 50 52 54 56 59 61 64 66 67 69 71 72 74 76 78 81 83 85 87 90 92 94 96 98 100 102 104 106 108 110 113 114 116 117 118 120 120 120 120 121 121 120 118 116 116 116 114 112 111 111 110 110 110 110 109 106 104 101 99 98
15 16 17 18 19 18 15 14 14 15 15 14 14 15 17 20 23 27 30 33 36 38 39 41 44 46 50 52 54 56 58 60 62 64 66 68 69 71 73 75 77 80 82 85 87 89 91 93 94 96 98 100 102 104 106 108 111 113 115 117 118 119 120 121 121 121 121 122 121 119 116 115 115 114 112 111 111 111 111 111 112 111 110 107 104 100 98
14 15 16 17 16 14 13 13 14 14 13 13 13 15 18 22 26 29 32 35 37 39 41 43 46 48 50 53 55 57 59 61 62 64 66 68 70 72 74 77 79 82 84 86 88 90 92 93 95 97 99 101 103 105 107 109 111 114 116 118 119 121 122 123 123 123 123 124 123 122 120 118 117 116 114 113 112 113 113 114 115 115 114 112 109 105 101
13 14 16 15 13 12 11 12 13 12 12 13 14 17 21 25 28 31 34 36 38 40 43 45 48 49 52 54 56 58 60 61 62 64 66 69 71 73 76 79 81 83 86 88 89 91 93 94 96 98 100 102 104 106 108 110 112 114 116 118 120 122 124 125 125 125 125 125 125 124 122 120 119 118 116 114 114 114 114 115 115 114 113 112 111 108 104
13 13 13 12 11 11 11 12 12 11 12 14 17 20 25 28 31 33 35 37 40 42 44 47 49 51 53 54 56 58 59 61 62 64 67 69 72 75 78 80 82 85 87 89 91 92 94 95 97 98 100 102 105 107 108 110 113 115 117 119 121 123 125 126 127 126 126 125 126 125 124 121 119 118 117 115 115 114 113 113 113 113 113 112 111 109 107
11 11 11 10 10 10 12 12 11 11 13 16 20 24 27 30 32 34 36 39 41 43 45 48 50 52 54 55 56 58 59 61 62 65 67 70 73 76 79 82 84 87 89 91 93 94 96 97 98 100 102 103 105 107 109 111 113 116 118 119 121 123 125 127 128 128 127 126 125 124 124 122 120 118 116 115 114 114 113 112 112 113 112 111 111 110 108
9 8 9 9 9 11 11 11 10 12 16 19 22 25 28 31 33 35 37 39 42 44 46 48 51 52 54 55 56 58 60 61 63 66 69 72 75 78 80 83 86 89 91 93 95 96 98 99 100 101 103 104 106 108 110 112 114 116 118 120 122 123 125 127 128 129 128 127 125 123 122 121 120 119 118 117 116 115 113 111 111 111 110 108 107 106 105
6 7 9 9 10 10 9 9 11 14 18 21 24 27 29 32 33 35 38 40 42 44 47 49 51 52 54 55 57 59 61 62 65 67 70 73 76 79 83 85 88 91 93 95 97 98 99 101 102 103 104 106 108 109 111 113 115 117 119 121 122 124 125 127 129 129 129 128 126 124 123 122 121 122 121 120 118 116 114 111 109 107 105 104 102 100 98
6 8 9 10 9 8 8 9 12 16 20 23 26 28 30 32 35 36 39 41 43 45 47 49 50 52 54 56 58 60 62 64 66 69 72 75 78 82 85 88 90 92 94 96 98 100 101 102 103 105 106 107 109 110 112 114 116 118 120 122 123 124 125 127 128 129 129 128 128 127 125 124 123 123 122 120 118 116 114 111 107 104 102 100 98 96 94
9 10 10 9 7 6 8 11 15 18 22 25 27 29 32 34 36 38 40 41 43 45 46 48 50 53 55 57 60 62 64 66 67 70 73 76 80 83 86 89 92 93 95 97 99 101 102 103 105 106 107 109 110 111 113 115 118 119 121 123 124 125 126 126 128 129 130 130 129 128 127 125 123 121 121 120 117 115 113 110 106 103 100 98 97 95 94
11 11 10 7 5 7 10 13 17 21 24 27 29 31 33 35 37 39 40 41 43 45 47 49 51 53 56 59 61 63 65 66 68 70 74 77 81 84 87 90 92 94 96 98 100 102 103 105 106 108 109 110 112 113 115 117 119 121 123 124 126 127 127 127 128 130 131 131 130 129 127 125 122 120 119 118 116 114 112 109 106 104 102 100 98 97 95
12 10 8 6 6 9 12 16 20 23 26 28 30 32 34 35 37 38 39 41 43 46 48 50 52 55 57 59 62 64 66 67 69 72 75 78 82 85 88 90 92 94 96 98 100 102 104 106 108 109 111 112 113 115 117 118 120 122 124 126 127 128 129 129 130 131 131 131 131 129 127 124 121 118 117 116 115 115 114 112 109 107 105 103 101 99 97
11 9 6 6 8 12 16 19 22 25 27 29 30 32 34 35 36 37 39 41 44 47 50 52 54 56 58 60 62 65 67 69 71 74 77 80 82 85 88 90 92 94 96 98 100 103 105 107 109 111 112 114 115 117 119 120 122 123 125 127 129 130 131 131 133 134 134 134 133 131 129 126 123 120 119 117 117 117 117 116 113 110 107 105 103 100 98
10 7 5 8 12 16 19 21 24 26 27 29 31 32 33 34 35 37 40 43 46 48 51 53 55 57 59 61 63 66 69 71 74 76 79 81 83 85 88 90 92 94 96 98 100 103 106 108 110 112 113 115 117 118 120 122 123 125 126 128 130 131 132 134 135 136 137 137 137 136 134 132 129 126 124 122 121 119 119 118 115 112 108 106 104 101 99
8 7 8 11 15 18 20 22 24 26 27 29 31 31 32 34 36 38 41 44 47 49 51 53 55 58 60 63 65 67 70 73 76 78 81 82 84 86 88 91 92 94 96 98 100 103 106 109 111 113 114 116 118 120 121 123 125 126 128 129 131 132 134 135 137 138 139 139 139 139 138 136 134 131 129 127 125 123 121 119 117 113 110 107 104 101 98
8 9 12 15 17 20 21 23 24 26 27 29 30 31 32 34 37 40 42 45 47 50 52 54 57 59 62 64 67 69 72 74 77 80 82 83 84 86 89 91 93 94 96 98 101 104 107 109 112 114 115 117 119 121 123 125 126 128 129 130 132 133 135 136 137 139 140 140 140 140 139 138 136 133 131 129 127 126 123 121 119 115 111 107 104 101 97
11 13 15 17 18 20 21 23 24 26 28 28 29 31 33 36 38 41 43 46 49 51 53 56 58 60 63 66 68 71 74 76 78 80 83 84 85 86 89 91 93 94 96 99 102 105 107 110 112 115 117 119 120 122 124 126 127 129 130 131 133 134 135 136 138 139 140 141 141 140 139 138 137 135 132 129 127 126 124 122 120 116 112 108 104 100 96
14 15 16 17 18 19 21 23 24 26 27 28 30 32 35 38 40 43 45 48 51 53 55 57 59 62 64 67 70 73 75 77 79 82 84 85 86 87 89 91 93 95 97 99 102 105 108 111 113 116 118 120 122 124 126 127 129 130 132 133 134 135 136 137 138 139 141 141 141 141 140 139 137 136 134 130 128 125 123 120 118 115 112 108 104 100 95
15 15 16 17 18 19 21 23 24 26 27 29 32 35 38 41 43 46 48 50 53 55 57 59 62 64 67 69 72 74 77 79 81 83 85 87 88 89 90 91 93 95 97 100 102 105 108 111 114 117 119 122 124 126 127 129 130 131 133 134 135 136 137 138 139 140 141 141 141 141 140 139 137 136 134 132 128 125 122 119 116 114 110 107 103 99 95
14 15 16 18 19 20 21 23 25 27 29 32 35 38 41 44 46 48 51 53 55 57 60 62 64 67 69 72 74 76 78 80 82 84 86 88 89 90 91 92 94 96 98 100 102 105 108 111 114 117 120 123 126 128 129 130 132 133 134 135 136 137 137 138 139 140 141 141 141 141 140 139 137 135 134 132 129 126 122 119 116 113 110 106 101 97 94
13 15 17 18 19 21 22 24 26 29 32 35 38 41 43 46 48 50 53 55 57 60 62 64 67 69 71 74 76 78 80 82 84 85 87 88 89 90 91 93 94 96 98 100 102 105 109 112 115 118 121 124 126 129 130 132 133 134 135 136 137 137 139 139 140 140 141 141 141 141 140 139 137 134 133 131 129 126 123 119 116 112 109 105 101 97 93
14 15 17 18 20 22 24 26 28 31 35 38 40 43 45 47 50 52 54 57 59 61 64 66 68 71 73 75 77 80 82 83 84 86 87 88 89 90 92 94 95 97 99 101 103 106 110 113 116 119 121 124 127 130 131 133 135 136 137 138 138 139 140 141 141 141 142 142 142 141 141 139 137 134 132 130 128 126 123 119 116 112 108 105 101 97 93
14 15 17 19 21 24 26 28 31 34 37 40 42 45 47 49 52 54 56 58 61 63 66 68 70 72 74 76 79 81 83 84 85 86 87 88 89 91 93 95 96 98 101 102 104 107 111 114 117 119 122 125 128 130 133 134 136 138 139 139 140 140 141 142 142 143 143 143 143 142 141 140 138 135 132 129 127 125 122 119 115 112 108 104 100 96 93
14 16 19 21 24 26 28 31 34 37 40 42 45 47 49 52 54 56 58 60 62 65 67 69 71 73 75 78 80 82 83 84 85 86 86 88 90 93 95 96 97 100 102 104 106 109 112 115 117 120 123 126 128 131 134 136 137 139 140 141 141 141 142 143 144 144 144 144 144 143 142 140 138 136 132 129 126 124 122 119 116 111 108 105 101 97 93
15 18 21 23 26 28 31 34 37 39 42 44 47 49 51 53 55 57 59 61 63 66 68 70 72 75 77 79 81 82 83 84 86 86 87 89 91 94 97 98 99 101 104 106 108 110 113 116 118 121 124 126 129 132 134 137 138 140 141 142 143 143 144 145 145 146 146 146 145 144 143 141 139 136 133 130 126 123 121 120 117 112 107 103 100 97 93
18 21 23 26 28 31 34 36 39 41 44 46 48 51 53 55 57 58 60 62 64 67 70 72 74 76 78 80 81 83 84 85 86 87 88 90 93 96 98 100 102 103 106 109 111 113 115 117 119 121 124 126 129 132 135 137 139 141 143 144 144 145 145 146 147 147 147 147 146 145 144 142 139 137 134 130 127 123 120 118 115 111 105 101 98 96 93
20 23 25 28 31 34 36 39 41 43 45 48 50 52 54 55 57 59 61 63 65 68 71 73 75 77 79 81 83 84 85 87 88 89 90 92 94 97 100 102 104 105 108 111 113 115 117 118 120 122 125 127 129 131 134 137 140 142 144 145 146 146 147 147 148 148 148 147 147 146 144 142 139 137 134 131 127 123 119 116 112 108 104 99 97 95 93
Wind_Direction
339 342 343 346 348 350 351 351 350 351 351 351 352 352 353 354 353 350 348 348 349 350 351 351 349 349 352 354 356 359 1 3 3 3 2 360 358 356 353 352 350 348 347 345 343 342 342 341 340 339 338 337 337 336 335 334 334 334 335 336 336 336 336 335 335 337 339 338 338 340 341 340 338 336 336 338 338 338 336 334 332 333 335 333 328 330 332
339 342 345 347 349 349 349 349 351 352 352 352 352 353 354 353 350 349 350 351 351 352 352 351 350 353 356 358 1 3 5 7 6 5 3 0 357 355 353 352 351 349 348 346 345 345 344 344 342 341 340 339 338 337 336 336 337 338 338 338 339 339 339 337 335 337 339 338 338 341 343 343 342 342 342 343 342 340 339 337 335 335 338 336 331 330 331
340 343 345 347 347 347 349 350 352 352 353 353 353 353 354 352 350 352 353 353 352 352 352 351 354 357 0 3 5 7 8 9 8 6 3 360 357 355 355 353 352 351 349 348 348 348 347 345 344 343 342 340 340 339 339 340 341 342 341 342 342 343 343 342 340 341 343 342 342 344 346 346 346 346 346 345 344 342 341 338 335 336 339 338 332 329 329
340 343 346 346 346 347 349 350 352 353 353 353 352 353 352 351 353 355 355 354 353 352 352 354 358 2 5 7 9 10 11 10 8 6 2 359 358 357 357 356 354 353 352 352 351 349 348 347 346 345 344 344 343 343 344 344 345 345 344 345 346 345 347 347 345 346 348 347 346 347 349 349 348 347 346 346 345 344 342 338 336 337 338 336 332 329 328
341 344 344 344 345 347 349 352 353 354 353 352 353 354 353 354 356 356 355 354 353 353 355 358 2 6 9 11 11 12 12 11 9 5 2 360 0 0 359 358 356 356 355 354 353 351 350 350 349 349 349 349 348 348 348 348 348 348 348 348 349 349 351 352 350 348 349 348 347 349 350 349 348 347 346 347 346 345 342 339 338 338 336 333 332 330 329
341 343 342 343 345 348 351 353 353 352 353 354 354 355 356 358 357 355 354 354 353 354 358 2 6 9 11 12 13 13 12 10 8 5 3 3 3 2 1 359 358 358 358 357 356 355 354 354 354 354 354 354 354 353 353 353 352 352 352 352 353 354 355 356 354 351 350 350 349 350 350 349 348 348 348 347 346 345 343 339 338 338 337 334 333 332 332
340 341 341 343 346 350 352 352 351 352 354 355 355 357 359 358 356 354 354 355 355 357 2 8 11 12 12 13 14 13 12 10 7 6 7 7 5 3 3 1 0 360 359 359 359 360 359 359 359 359 360 360 0 360 360 359 358 357 357 357 358 358 358 358 357 353 352 351 350 350 350 350 349 348 348 348 347 347 345 340 337 338 337 336 335 335 335
339 340 341 344 348 350 350 350 351 354 355 356 358 359 358 356 354 355 355 356 357 1 7 12 13 13 14 14 14 12 11 10 10 10 9 9 8 6 4 3 1 0 0 0 1 2 3 3 4 4 5 6 6 6 5 4 3 2 1 1 0 0 359 359 358 356 353 352 351 351 351 351 349 349 349 348 347 349 346 340 337 338 337 337 336 336 336
338 340 343 346 348 348 349 351 354 356 358 0 1 359 356 355 355 356 357 358 0 5 10 13 14 15 15 14 13 12 12 12 12 12 12 10 9 7 5 3 2 1 1 1 3 4 5 5 6 6 7 8 9 9 8 7 6 5 5 4 2 2 0 359 359 358 356 354 353 352 352 351 350 348 349 348 347 349 348 342 339 340 338 337 338 338 338
339 342 344 346 347 347 351 354 356 358 1 2 359 356 356 356 356 357 358 1 4 9 11 13 15 16 15 13 12 13 13 14 13 14 12 10 9 6 4 4 4 4 4 4 5 5 5 5 6 6 7 9 9 10 9 9 8 7 6 5 4 3 2 1 1 0 358 356 354 353 352 352 349 347 348 349 347 349 350 344 341 341 341 340 341 341 340
341 343 344 344 345 349 354 356 358 2 2 0 358 357 356 356 357 359 1 4 7 10 12 15 17 15 13 13 14 15 15 15 14 13 12 10 9 7 5 6 6 6 7 7 7 7 6 6 7 7 8 9 10 10 10 9 9 8 7 6 5 5 4 4 3 1 359 357 356 354 353 351 350 350 350 350 347 349 352 348 343 342 342 342 342 342 341
342 342 341 343 347 353 357 359 2 4 1 359 359 357 355 356 358 2 4 6 8 11 14 17 17 15 14 16 17 17 16 15 14 13 12 11 10 8 8 8 8 9 10 10 10 9 8 8 9 9 9 10 10 10 10 10 9 8 7 7 6 6 5 4 3 1 360 358 357 356 354 354 354 352 351 350 348 349 352 350 346 344 343 343 343 344 343
340 339 340 344 352 357 360 2 4 4 1 360 358 355 354 357 1 3 4 7 10 13 16 18 17 17 18 19 18 17 15 15 14 13 13 12 11 11 10 10 10 11 12 12 12 11 11 10 11 10 10 10 10 10 10 10 9 8 7 7 6 5 4 3 3 1 1 359 358 357 357 356 355 353 351 350 348 347 349 350 348 346 344 343 344 346 345
336 337 341 349 356 359 2 5 5 2 359 357 355 354 356 0 3 4 7 11 13 14 17 19 19 20 20 19 17 16 15 15 15 14 13 13 13 13 12 12 12 12 12 13 13 13 12 12 12 12 11 11 11 11 11 10 9 9 8 7 6 5 4 3 2 2 1 0 359 358 358 356 354 354 353 351 350 349 350 351 350 348 345 344 345 346 346
333 338 346 355 359 1 4 6 2 358 356 353 353 356 1 4 4 8 13 15 14 16 19 22 22 21 19 16 16 16 16 16 16 15 14 14 13 13 13 13 13 13 13 14 14 14 14 13 13 13 13 13 12 12 12 11 10 9 8 7 6 5 4 3 3 2 1 1 359 358 358 356 354 354 354 353 352 351 351 351 351 350 347 345 344 345 345
333 343 353 358 1 4 6 4 359 355 353 352 354 359 4 7 10 15 18 15 16 20 23 23 21 19 17 15 16 17 17 17 17 16 15 14 13 13 14 14 14 15 15 16 16 15 15 14 14 14 14 14 13 13 13 12 12 11 9 8 7 5 5 4 3 2 1 1 360 358 358 357 355 354 355 355 353 352 350 349 349 350 347 345 343 344 346
339 352 358 0 3 6 4 360 356 354 353 353 356 2 6 11 16 19 19 18 21 24 23 21 20 18 16 16 16 18 18 18 17 16 15 14 13 14 15 16 16 16 17 16 16 16 15 15 15 15 14 14 14 13 13 13 12 12 10 9 8 7 5 5 4 2 1 2 1 359 358 358 357 355 354 355 354 352 350 348 347 348 348 346 345 346 348
350 359 0 2 5 4 360 357 355 353 352 354 359 5 10 16 21 21 21 23 25 24 20 19 19 18 17 17 18 19 19 19 17 16 15 15 15 16 17 17 17 17 17 16 16 16 15 15 15 14 14 14 14 13 13 12 12 12 11 10 9 8 6 5 5 3 2 2 1 360 358 358 358 357 355 354 353 352 351 349 347 348 349 349 348 348 349
357 0 1 3 3 0 357 356 354 352 353 357 3 10 17 21 23 25 26 25 23 20 19 19 18 17 18 18 19 20 20 18 16 16 16 17 17 18 18 17 17 17 16 16 15 15 15 15 14 14 14 13 13 13 12 12 11 11 11 10 9 8 7 6 5 4 3 2 1 360 359 358 358 358 356 353 352 352 352 352 350 349 349 350 350 349 349
358 359 0 2 0 358 357 355 352 352 356 2 9 16 21 24 26 29 28 22 19 20 20 19 18 18 19 20 20 20 19 17 17 17 18 18 18 18 17 16 16 16 15 15 15 14 14 14 14 14 13 13 13 12 12 12 11 11 11 10 9 9 7 6 6 4 3 2 1 360 360 359 358 357 356 354 353 354 354 353 352 350 349 349 349 349 349
357 358 359 359 358 358 356 352 351 355 0 7 16 21 25 28 30 29 23 18 19 20 19 19 19 20 21 21 21 20 19 18 19 19 19 18 17 16 16 15 15 15 15 14 14 14 14 14 13 13 13 13 12 12 11 11 11 10 10 10 9 8 8 7 6 5 4 3 2 0 360 359 358 357 356 356 355 355 354 353 352 351 349 349 349 349 350
356 357 357 357 358 357 353 350 353 360 6 14 21 26 30 32 30 24 18 19 20 20 20 21 21 21 22 21 20 20 20 20 20 20 18 17 16 15 14 14 14 14 14 14 14 13 13 13 13 13 13 12 12 12 11 11 10 10 10 9 9 8 8 7 6 6 5 3 3 1 360 359 358 357 357 356 355 354 354 354 353 351 350 349 348 349 349
356 356 355 357 358 353 349 351 358 6 14 21 26 30 34 33 25 18 18 20 21 21 22 23 23 22 22 21 21 22 22 20 19 18 17 15 14 13 13 13 12 13 13 13 13 13 13 13 13 12 12 12 12 12 11 10 10 10 9 9 8 8 8 7 6 6 5 4 3 2 360 359 359 358 357 357 355 355 355 354 353 352 351 350 348 348 349
355 355 356 358 355 348 349 357 6 14 21 27 32 35 34 27 19 18 21 22 22 23 24 24 24 23 23 22 22 22 21 19 17 16 15 14 13 12 12 12 11 12 13 12 13 13 13 12 12 12 12 11 11 11 10 10 10 9 9 9 8 8 8 7 6 5 5 4 4 3 0 359 359 358 358 357 356 356 356 355 354 353 352 350 349 348 348
354 355 358 357 349 346 353 5 15 22 28 33 37 35 27 20 18 20 24 24 25 25 25 26 25 24 23 23 22 20 19 17 15 14 13 12 12 12 11 11 11 12 12 12 12 13 12 12 12 11 11 11 10 10 10 9 9 9 8 8 8 8 7 7 6 5 4 4 4 3 1 359 358 358 358 357 357 356 356 355 354 353 352 351 350 348 347
352 356 357 351 345 350 3 16 24 30 36 41 39 30 21 19 21 24 26 27 27 26 26 26 25 23 22 21 19 17 16 15 13 13 12 11 11 11 11 11 11 11 12 12 12 12 12 11 11 11 10 10 10 10 10 9 8 8 8 7 8 7 7 6 6 5 4 3 3 3 2 360 358 358 358 357 356 356 356 355 353 352 351 351 350 349 348
353 356 352 345 347 0 16 26 33 39 44 43 33 23 20 22 26 27 28 28 28 27 26 25 23 21 20 19 17 15 14 12 12 11 11 10 11 11 11 11 11 11 11 11 11 11 11 11 10 10 10 10 10 9 9 9 8 8 7 7 7 7 6 6 6 5 4 3 2 1 1 0 359 358 357 357 356 355 355 354 353 352 351 351 350 349 349
355 353 347 346 357 14 28 37 43 48 47 37 24 21 24 27 29 30 29 28 27 25 23 22 20 19 18 16 15 14 12 11 10 10 10 10 10 11 11 11 10 10 10 10 10 10 10 10 10 9 9 9 9 9 9 9 8 8 7 7 7 6 6 6 5 5 4 3 2 1 0 0 359 358 357 356 355 355 355 355 354 353 352 350 349 349 349
353 348 346 353 11 29 40 48 53 51 42 30 24 26 30 32 32 30 28 26 25 22 21 19 18 16 16 15 13 12 11 10 9 10 10 10 10 11 11 10 10 10 10 10 10 10 10 9 9 9 9 9 9 9 8 8 8 7 7 7 7 6 6 5 5 5 5 4 2 1 0 0 359 358 357 356 356 356 355 355 354 352 351 350 349 349 349
349 345 352 8 29 43 52 58 57 48 36 31 31 34 35 33 31 28 26 24 22 20 18 17 16 15 14 13 12 11 10 9 9 10 10 10 10 10 10 10 10 10 10 10 9 9 9 9 9 9 8 8 8 8 8 8 8 7 7 7 7 6 6 5 4 5 4 4 3 1 0 360 359 358 357 357 356 356 355 355 354 352 352 351 349 349 348
347 350 8 31 49 60 64 63 55 42 36 36 37 37 35 31 28 26 23 21 20 18 16 15 14 13 12 11 11 10 9 9 10 10 10 10 10 10 11 10 10 10 10 10 9 9 8 8 8 8 8 8 8 8 8 7 7 7 7 7 7 6 6 5 4 4 4 3 3 2 1 360 359 358 357 357 356 355 355 355 354 353 352 351 349 349 348
352 10 38 59 71 73 70 60 45 38 39 39 37 35 32 29 26 23 21 19 18 16 15 14 12 11 11 10 10 10 9 10 10 10 10 10 10 11 11 10 10 10 10 9 9 8 8 7 7 8 7 7 8 8 7 7 7 7 7 7 7 6 6 5 5 4 3 3 2 1 1 360 358 358 357 357 356 355 355 354 354 353 352 350 349 348 347
15 47 70 83 87 80 67 49 40 40 40 39 35 32 29 27 24 21 19 17 16 14 12 12 10 9 9 10 10 9 9 10 10 10 10 10 10 11 10 10 10 9 9 9 8 8 7 7 7 7 7 7 7 7 7 7 7 7 7 6 6 6 6 5 5 4 3 2 1 0 360 359 359 358 357 357 356 355 354 354 354 353 351 350 349 347 346
61 82 94 97 92 79 57 43 43 42 39 36 33 29 27 25 22 20 17 15 13 12 10 9 9 8 9 10 9 9 9 9 9 9 10 10 10 10 9 9 9 9 8 8 8 7 6 6 6 6 6 6 6 7 6 6 7 7 6 6 6 6 6 5 5 4 3 2 2 1 360 359 359 358 357 357 356 355 354 353 353 352 351 350 348 347 346
96 106 108 102 90 69 50 46 44 40 36 33 30 28 26 24 20 17 14 12 10 10 8 8 8 9 9 9 8 7 8 8 8 9 9 8 8 8 8 8 8 8 7 7 7 6 6 6 6 6 6 6 6 6 6 6 6 6 6 6 6 5 5 5 5 4 3 2 2 1 0 360 359 358 357 356 355 355 354 353 352 351 350 349 348 348 347
117 119 112 101 80 58 50 46 41 38 35 32 29 26 24 21 17 14 11 9 8 9 9 8 8 8 8 7 6 6 6 7 7 7 7 6 7 7 7 7 7 7 7 7 7 6 5 5 5 5 5 5 5 6 6 6 6 6 6 5 5 5 5 5 4 4 3 2 2 1 1 360 359 358 357 356 355 354 353 352 352 351 351 350 349 348 348
126 121 110 90 65 54 48 41 38 36 33 30 27 23 19 16 13 10 8 8 8 8 9 8 7 6 6 7 6 5 5 5 5 5 4 4 5 5 6 6 6 6 6 6 6 5 5 5 5 5 5 5 5 5 5 5 5 6 5 5 4 4 4 4 4 4 3 2 1 1 0 359 358 358 357 356 355 354 353 353 352 352 351 350 350 349 348
125 120 108 78 57 49 43 38 36 34 30 26 23 18 14 11 10 8 7 8 8 8 7 7 5 4 5 6 5 4 4 3 3 3 3 3 3 4 4 5 5 5 5 5 5 5 5 5 5 5 5 5 5 5 5 5 5 5 5 4 4 4 4 3 3 3 3 2 1 360 359 358 358 357 356 356 355 355 354 354 353 352 352 351 350 350 349
124 118 94 66 52 45 40 36 33 29 24 19 16 13 10 9 9 8 7 7 7 7 6 6 4 4 4 4 3 3 2 2 1 1 1 1 1 2 3 3 4 4 4 4 4 4 4 4 4 4 4 4 4 4 4 4 4 5 4 4 4 4 3 3 3 3 2 2 1 360 359 358 357 357 356 356 355 355 355 354 353 353 352 351 350 350 349
122 99 72 57 49 43 39 33 27 22 18 14 11 10 9 9 8 7 7 7 7 6 5 5 3 2 1 0 0 1 1 0 0 360 360 360 360 0 1 2 2 3 3 3 3 3 3 4 4 4 4 4 4 4 4 4 4 4 4 4 3 3 3 3 3 3 2 2 1 360 359 358 357 357 356 356 355 355 354 354 353 353 352 351 350 350 349
103 79 62 51 44 39 33 26 21 16 12 10 9 9 9 9 8 7 6 6 5 4 3 2 1 359 358 358 358 359 359 359 359 359 359 359 359 359 360 1 1 1 2 2 2 3 3 3 4 4 4 4 4 4 4 4 4 4 4 3 3 3 3 3 3 2 2 2 1 0 359 358 357 357 356 355 355 354 354 354 353 353 352 351 350 350 350
81 66 55 47 40 33 25 20 16 13 10 9 9 9 9 8 7 5 3 3 2 1 0 360 359 358 357 357 357 357 358 358 359 358 358 358 358 358 359 360 360 0 1 1 2 2 2 3 3 3 4 4 4 4 4 4 4 3 3 3 3 3 3 2 2 2 2 2 1 0 359 359 358 356 356 355 354 354 353 353 353 353 352 351 350 349 350
68 58 49 40 32 26 20 16 13 12 10 9 9 9 7 6 4 2 1 360 360 360 359 359 358 357 357 357 357 357 357 358 358 358 357 357 356 357 358 359 359 359 360 1 1 1 2 2 3 3 3 4 4 4 4 4 4 3 3 3 3 2 2 2 2 2 2 1 1 0 359 359 358 357 355 355 354 353 353 353 352 352 352 351 350 349 349
58 49 39 31 25 22 18 14 12 11 10 9 8 7 5 4 2 1 359 358 358 359 359 358 358 357 356 356 357 356 356 357 357 357 356 355 355 356 357 357 358 358 359 360 1 1 1 2 2 3 3 3 4 4 4 4 4 3 3 2 2 2 2 2 2 2 1 1 1 0 359 359 358 357 355 354 354 353 352 352 352 352 352 351 350 349 349
48 38 30 24 21 20 16 12 10 9 8 7 6 5 4 3 2 360 358 357 357 357 358 358 357 356 356 356 356 356 356 356 356 355 355 354 354 354 355 356 356 357 358 359 360 0 0 1 2 2 2 3 3 3 3 3 3 3 2 2 2 1 1 1 1 1 1 1 0 360 359 358 358 357 356 354 353 352 352 352 352 352 352 351 350 349 349
37 30 26 21 17 15 12 9 6 5 5 5 4 3 2 2 0 358 357 355 354 355 356 356 356 355 354 354 355 354 354 354 354 354 354 353 353 353 354 354 355 356 357 358 359 359 360 360 1 2 2 2 2 3 3 3 3 2 2 2 1 1 1 0 0 0 0 0 360 360 359 358 357 357 356 354 353 352 351 351 352 352 352 351 350 349 349
29 25 21 16 11 8 6 4 2 2 1 1 1 1 0 360 358 357 355 353 352 353 354 355 354 353 353 353 353 353 353 353 353 353 353 352 352 352 353 353 353 354 356 357 358 359 359 359 360 1 1 2 2 2 2 2 2 2 2 1 1 1 0 360 360 360 360 360 360 359 359 358 357 356 356 355 353 352 351 351 351 352 352 351 350 348 348
23 18 12 8 5 3 1 359 358 357 357 358 358 358 358 358 357 355 354 352 350 351 353 353 353 353 352 352 352 352 352 352 353 352 352 352 352 352 352 353 353 353 355 356 357 358 358 358 359 360 1 1 1 2 2 2 2 2 1 1 0 0 360 360 359 359 359 359 359 359 358 357 357 356 355 355 354 352 351 351 351 352 352 351 350 349 347
14 8 5 3 1 358 357 356 355 354 354 355 355 356 356 356 355 354 352 350 349 349 351 353 353 352 352 352 352 352 352 352 352 351 351 351 351 351 351 352 352 353 354 355 356 357 357 357 358 359 360 0 1 1 1 1 1 1 1 0 360 360 360 359 359 359 359 359 359 358 358 357 356 355 355 354 354 353 352 351 351 352 352 351 350 349 347
6 2 0 358 356 354 352 352 352 352 352 352 353 354 355 355 354 353 351 349 348 348 351 352 353 352 352 352 352 352 352 351 351 351 351 351 350 350 351 351 351 352 353 354 355 356 356 356 357 358 359 359 0 0 0 0 0 0 0 -0 360 359 359 359 359 358 358 358 358 358 357 357 356 355 354 354 353 353 353 352 351 352 352 351 350 348 347
1 359 357 354 351 350 349 349 349 349 349 350 351 353 354 354 353 352 351 348 347 348 350 352 352 352 352 352 352 352 352 351 350 349 350 350 349 349 349 350 350 351 352 353 354 354 354 355 356 357 358 359 359 360 360 360 360 360 360 360 359 359 359 358 358 358 358 358 357 357 357 356 355 355 354 353 353 353 353 352 351 351 352 352 350 348 347
358 356 352 349 347 346 346 346 346 346 346 347 349 351 353 353 353 352 350 348 346 347 349 351 352 351 351 351 352 352 352 351 350 348 348 348 348 348 348 348 349 350 351 352 352 353 353 354 355 356 357 358 359 360 360 359 359 359 359 359 359 358 358 358 358 358 358 357 357 356 356 355 355 354 354 353 353 352 352 352 351 351 351 352 352 350 348